Regional Weather Roundup
Issued by NWS

Home | Current Version | Previous Version | Graphics & Text | Print | Product List | Glossary On
Versions: 1 2 3 4 5 6 7 8 9 10 11 12 13 14 15 16 17 18 19 20 21 22 23 24 25 26 27 28 29 30 31 32 33 34 35 36 37 38 39 40 41 42 43 44 45 46 47 48 49 50
000
ASUS43 KDMX 261507
RWRIA

WEATHER ROUNDUP FOR IOWA
NATIONAL WEATHER SERVICE DES MOINES IA
1000 AM CDT SUN APR 26 2015

NOTE: "FAIR" INDICATES FEW OR NO CLOUDS BELOW 12,000 FEET WITH NO
SIGNIFICANT WEATHER AND/OR OBSTRUCTIONS TO VISIBILITY.

* - THESE STATIONS ARE NOT NWS STATIONS...THUS NOT UNDER NWS
QUALITY CONTROL.  THEY ALSO DO NOT REPORT WEATHER SUCH
AS PRECIPITATION OR FOG.

IAZ001>003-012>014-020>022-031>034-043>046-261600-
   NORTHWEST IOWA

CITY           SKY/WX    TMP DP  RH WIND       PRES   REMARKS
CARROLL *      SUNNY     50  34  53 E8        30.06R
CHEROKEE *     SUNNY     54  41  62 E6        30.07R
DENISON *      SUNNY     50  37  62 E10       30.05R
LE MARS *      SUNNY     54  37  54 NE8       30.09R
ORANGE CITY *  SUNNY     52  37  58 E6        30.07S
SHELDON *      SUNNY     54  39  58 NE5       30.06S
SIOUX CITY     SUNNY     53  37  54 E9        30.08R
SPENCER        SUNNY     54  39  57 N5        30.07R
STORM LAKE *   SUNNY     52  37  58 NE8       30.07R
$$

IAZ055>058-069>071-079>083-090>094-261600-
   SOUTHWEST IOWA

CITY           SKY/WX    TMP DP  RH WIND       PRES   REMARKS
ATLANTIC *     SUNNY     50  39  66 E8G14     30.05R
AUDUBON *      SUNNY     52  39  62 E9        30.06R
CLARINDA *     SUNNY     50  37  62 E10G17    30.04R
COUNCIL BLFS * PTSUNNY   48  43  81 E12G17    30.05R
CRESTON *      SUNNY     50  39  66 E15       30.03R
HARLAN  *      SUNNY     50  45  81 E12       30.08S
LAMONI         SUNNY     51  34  52 E12       30.01S
RED OAK *      SUNNY     50  37  62 E13       30.04R
SHENANDOAH *   SUNNY     52  37  58 E17       30.04R
$$

IAZ047>049-059>061-072>074-084-261600-
   CENTRAL IOWA

CITY           SKY/WX    TMP DP  RH WIND       PRES   REMARKS
AMES           SUNNY     51  34  52 NE8       30.06R
ANKENY *       SUNNY     50  34  53 NE10      30.05S
CHARITON *     SUNNY     50  36  57 NE8       30.03R
DES MOINES     MOSUNNY   52  31  44 E9        30.05R
GRINNELL*      SUNNY     48  30  49 NE7       30.05S
KNOXVILLE *    SUNNY     50  32  50 NE5       30.03R
MARSHALLTOWN   SUNNY     50  28  42 NE6       30.05R
PELLA *        SUNNY     52  36  54 NE3       30.06R
PERRY *          N/A     52  32  46 E9        30.06R
$$

IAZ004>006-015-016-023>025-035-036-261600-
   NORTH CENTRAL IOWA

CITY           SKY/WX    TMP DP  RH WIND       PRES   REMARKS
ALGONA *       SUNNY     50  39  66 CALM      30.08R
CLARION *      SUNNY     50  30  46 VRB6      30.07R
ESTHERVILLE    SUNNY     51  36  56 N7        30.07R
FORT DODGE *   SUNNY     50  36  57 E3        30.08R
MASON CITY     SUNNY     48  23  37 SE7       30.09R
FOREST CITY *  SUNNY     48  28  46 E3        30.07S
IOWA FALLS *     N/A     50  27  40 NE5       30.07S
$$

IAZ007>011-017>019-026>030-037>042-050>054-066-261600-
   NORTHEAST IOWA

CITY           SKY/WX    TMP DP  RH WIND       PRES   REMARKS
CEDAR RAPIDS   SUNNY     47  31  53 NE8       30.04R
CHARLES CITY * SUNNY     48  27  43 NE7       30.09R
CLINTON *      SUNNY     48  32  53 NE10      30.07R
DECORAH *      SUNNY     45  27  49 NE6       30.08R
DUBUQUE        SUNNY     47  27  45 NE10      30.05R
MONTICELLO *   SUNNY     46  32  57 E8        30.05S
OELWEIN *      SUNNY     46  30  53 NE9       30.07S
WATERLOO       SUNNY     50  30  46 NE8       30.06S
$$

IAZ064-065-067-068-078-261600-
   EAST CENTRAL IOWA

CITY           SKY/WX    TMP DP  RH WIND       PRES   REMARKS
DAVENPORT      SUNNY     48  30  49 E13       30.05R
IOWA CITY      SUNNY     49  32  52 NE9       30.06R
MT. PLEASANT * SUNNY     46  36  66 N8        30.03S
MUSCATINE *    SUNNY     48  32  53 NE8       30.05R
QUAD CITIES    SUNNY     50  31  48 E10       30.04R
$$

IAZ062-063-075>077-085>089-095>099-261600-
   SOUTHEAST IOWA

CITY           SKY/WX    TMP DP  RH WIND       PRES   REMARKS
BURLINGTON     SUNNY     49  35  58 VRB7      30.02R
FAIRFIELD *    SUNNY     48  32  53 NE7       30.03S
FORT MADISON * SUNNY     48  34  57 E8        30.02R
KEOKUK *       SUNNY     50  36  57 NE7       30.01R
OSKALOOSA *      N/A     48  34  57 NE7       30.04R
CENTERVILLE *  SUNNY     50  36  57 NE9       30.03S
OTTUMWA        SUNNY     49  32  52 NE9       30.03R
WASHINGTON *   SUNNY     46  37  71 NE8       30.04R
$$

ABBREVIATIONS USED IN REMARKS
   TC - TEMPERATURES IN CELSIUS
  WCI - WIND CHILL INDEX
   HX - HEAT INDEX
  VSB - VISIBILITY
$$




USA.gov is the U.S. government's official web portal to all federal, state and local government web resources and services.